User: anonymous   Login
Location: Coupvray
(48.8929°N, 2.7967°E)
Time: 19:40:45
(UTC+00:00)
Language:

Cosmos 1241 Rocket - Orbit

View from above orbital plane
View from above orbital plane
View from above satellite
View from above satellite

Ground track
Ground track

The orbit data is extracted from the following two-line orbital elements,

1 12150U 81006B   21136.35426218 -.00000013  00000-0  68291-4 0  9993
2 12150  65.8194 127.1839 0059905 231.5756 127.9921 13.77158883 25708
Epoch (UTC): 16 May 2021 08:30:08
Eccentricity: 0.0059905
inclination: 65.8194°
perigee height: 930 km
apogee height: 1018 km
right ascension of ascending node: 127.1839°
argument of perigee: 231.5756°
revolutions per day: 13.77158883
mean anomaly at epoch: 127.9921°
orbit number at epoch: 2570

The dashed part of the orbit path shows where the satellite is in the earth's shadow,  

DLR